Tracking 31023 objects as of 19-Jul-2025
HD Live streaming from Space Station
objects crossing your sky now

CZ-3 R/B

Track CZ-3 R/B now!
10-day predictions


NORAD ID: 20559
Int'l Code: 1990-030B
Perigee: 205.9 km
Apogee: 10,298.3 km
Inclination: 30.8 °
Period: 207.8 minutes
Semi major axis: 11623 km
RCS: 10.1665 m2 (large)
Launch date: April 7, 1990
Source: People's Republic of China (PRC)
Launch site: Xichang Space Center, China (XSC)

Note: This is a ROCKET BODY
Your satellite tracking list
Your tracking list is empty




NASA's NSSDC Master Catalog

Two Line Element Set (TLE):
1 20559U 90030B   25200.35725743  .00090647  00000-0  11792-2 0  9996
2 20559  30.7963 272.0235 4341536  14.7208 354.7483  6.92819935224879
Source of the keplerian elements: AFSPC